Location: Dal�� Lhota
(48.7500°N, 14.0167°E)
Time: 23:20:30
(UTC+00:00)

Cosmos 2034 Rocket - Pass Details

Date: 24 September 2020
Orbit: 957 x 1002 km, 82.9° (Epoch: 25 October)

Event Time Altitude Azimuth Distance (km) Brightness Sun altitude
Rises 18:02:35 0° 178° (S) 3,711 6.9 -11.6°
Reaches altitude 10° 18:05:07 10° 177° (S) 2,763 6.2 -12.0°
Maximum altitude 18:11:25 70° 95° (E) 1,058 4.0 -13.0°
Drops below altitude 10° 18:17:43 10° 13° (NNE) 2,760 6.4 -14.0°
Sets 18:20:14 0° 11° (NNE) 3,706 7.1 -14.4°
